Location: *
(46.0770°N, 1.6444°E)
Time: 05:37:05
(UTC+00:00)

GP-B - Pass Details

Date: 16 September 2019
Orbit: 631 x 635 km, 89.8° (Epoch: 16 October)

Event Time Altitude Azimuth Distance (km) Brightness Sun altitude
Rises 18:23:00 0° 9° (N) 2,940 6.5 -4.2°
Reaches altitude 10° 18:25:25 10° 19° (NNE) 2,026 5.6 -4.6°
Maximum altitude 18:29:28 34° 85° (E) 1,051 3.8 -5.3°
Drops below altitude 10° 18:33:30 10° 150° (SSE) 2,009 5.3 -6.0°
Sets 18:35:52 0° 160° (SSE) 2,912 6.2 -6.4°
